Location: Stull Observatory
(42.2506°N, 77.7903°W)
Time: 18:25:47
(UTC-04:00)

Daily predictions for brighter satellites

Satellite Brightness Start Highest point End
(mag) Time Altitude Azimuth Time Altitude Azimuth Time Altitude Azimuth
HJ-1C 3.8 19:52:13 10° SSE 19:55:27 44° ENE 19:58:44 10° N
Cosmos 1937 Rocket 3.9 19:50:40 10° SSW 19:55:55 72° WNW 20:01:14 10° NNE
CZ-3B DEB 3.3 19:47:41 10° SW 20:00:03 78° NW 20:05:33 10° NE
Cosmos 1934 Rocket 3.9 19:54:15 10° S 20:00:20 75° E 20:06:25 10° N
Cosmos 1953 3.3 19:57:22 10° SSE 20:00:49 27° E 20:04:16 10° NNE
SL-27 R/B 2.9 19:57:57 10° NNW 20:01:32 69° WSW 20:05:08 10° S
Helios 1B rocket 3.9 19:59:35 10° NE 20:02:14 16° E 20:04:52 10° SE
Okean 3 Rocket 3.8 19:58:52 10° N 20:03:08 47° ENE 20:07:23 10° SSE
Cosmos 1844 4.4 19:57:39 10° SW 20:03:21 61° WNW 20:09:08 10° NNE
Cosmos 1766 3.2 20:03:52 10° S 20:07:44 88° E 20:11:39 10° N
Cosmos 1076 Rocket 4.2 20:04:00 10° N 20:07:53 33° ENE 20:11:43 10° SE
Lacrosse 4 Rocket 3.7 20:06:10 10° WSW 20:09:37 26° NW 20:13:06 10° N
Cosmos 1812 Rocket 4.1 20:08:35 10° SSW 20:12:57 63° W 20:17:19 10° N
Cosmos 1674 3.9 20:10:01 10° NNE 20:13:07 24° ENE 20:16:13 10° SE
Abrixas 2.3 20:10:18 10° WNW 20:13:09 77° SSW 20:15:43 12° ESE
Tiangong 1 3.4 20:12:06 10° WSW 20:14:05 17° SSW 20:16:05 10° SSE
Cosmos 1818 3.6 20:12:45 10° NNW 20:18:14 73° NE 20:23:38 10° SE
Lacrosse 5 rocket 2.4 20:16:21 10° NNW 20:19:49 28° NNE 20:22:31 13° E
COSMOS 2487 3.2 20:16:39 10° N 20:19:58 34° ENE 20:22:57 12° SE
Helios 1A 3.8 20:17:04 10° SE 20:20:46 32° ENE 20:24:30 10° N
CZ-4B DEB 4.4 20:20:23 14° E 20:21:35 17° ENE 20:23:44 10° NNE
Cosmos 1269 Rocket 4.2 20:16:44 10° N 20:21:53 51° ENE 20:27:01 10° SE
Cosmos 468 4.5 20:22:14 10° NNW 20:27:29 82° ENE 20:32:44 10° SSE
ISS -2.8 20:25:01 10° SSW 20:27:49 26° SE 20:29:21 18° E
In-Cosmos 22 4.2 20:22:56 10° NNW 20:28:16 83° W 20:33:32 10° S
Cosmos 1766 Rocket 4.0 20:24:42 10° N 20:28:59 42° ENE 20:33:14 10° SSE
GP-B 3.6 20:26:13 10° SSE 20:30:20 38° E 20:34:27 10° NNE
Cosmos 372 Rocket 4.1 20:26:02 10° S 20:30:56 48° ESE 20:35:53 10° NNE
Cosmos 2344 4.1 20:24:20 10° SW 20:31:58 69° NW 20:40:44 10° NE
USA 186 1.5 20:33:16 29° ESE 20:33:49 34° ENE 20:35:54 10° N
CZ-2D R/B 3.2 20:30:09 10° SSE 20:33:59 70° ENE 20:37:53 10° N
Meteor 1-4 Rocket 2.3 20:30:48 10° S 20:34:15 72° E 20:37:44 10° NNE
USA 215 4.0 20:28:50 10° ENE 20:34:19 28° SE 20:39:45 10° S
Cosmos-2242 3.5 20:31:53 10° SSE 20:35:46 37° E 20:39:42 10° NNE
Cosmos 158 Rocket 4.1 20:31:03 10° NNW 20:36:06 56° ENE 20:40:55 12° SE
Meteor 1-21 Rocket 4.3 20:31:54 10° N 20:37:43 69° ENE 20:43:36 10° SSE
Resurs 01 Rocket 1.8 20:33:41 10° S 20:38:05 78° WSW 20:42:32 10° NNW
Cosmos 1805 3.3 20:34:16 10° S 20:38:09 80° W 20:42:05 10° N
FENGYUN 3A 4.5 20:38:14 10° S 20:43:29 53° W 20:48:46 10° NNW
Cosmos 2098 Rocket 4.4 20:36:44 10° S 20:44:01 80° E 20:51:38 10° N
Cosmos 1544 3.6 20:41:15 10° SSW 20:44:51 63° W 20:48:31 10° N
Cosmos 1833 Rocket 2.6 20:39:43 10° NNW 20:45:21 70° ENE 20:50:10 14° SSE
Cosmos 1605 Rocket 4.3 20:39:43 10° SSW 20:45:59 71° W 20:52:21 10° N
Lacrosse 5 3.2 20:41:57 10° WSW 20:46:43 40° NW 20:51:30 10° NE
Cosmos 2100 Rocket 4.1 20:42:52 10° SSE 20:48:58 53° E 20:55:09 10° NNE
Spot 2 Rocket 3.9 20:45:55 10° S 20:50:59 66° WSW 20:56:06 10° NNW
Cosmos 2278 Rocket 3.5 20:48:19 10° SW 20:53:41 43° WNW 20:59:06 10° NNE
Cosmos 1867 3.6 20:49:19 10° SSW 20:54:46 86° WNW 21:00:16 10° NNE
Cosmos 1470 2.8 20:51:17 10° S 20:55:12 58° E 20:59:07 10° NNE
Cosmos 1733 3.2 20:55:06 10° S 20:58:54 61° E 21:02:45 10° NNE
BREEZE-M DEB (TANK) 3.3 20:56:05 10° SW 20:59:26 53° SE 21:10:01 10° ENE
Cosmos 1743 Rocket 4.0 20:56:05 10° N 21:00:19 42° ENE 21:01:43 32° ESE
ATLAS 5 CENTAUR R/B 1.7 20:55:47 10° SSW 21:00:25 71° ESE 21:05:30 10° NE
Cosmos 1500 Rocket 4.3 20:57:46 10° NNE 21:01:39 31° ENE 21:02:00 31° E
Cosmos 1340 Rocket 2.7 21:01:42 10° N 21:05:43 66° E 21:07:16 35° SSE
USA 267 4.5 21:03:31 15° ENE 21:07:55 30° NNE 21:13:26 10° NW
Envisat 2.9 21:05:45 22° SSE 21:09:05 70° ENE 21:14:10 10° N
SJ-11-01 4.2 21:07:56 28° SSE 21:10:24 66° ENE 21:15:06 10° N
Cosmos 2297 4.1 21:04:58 10° SW 21:10:38 66° WNW 21:16:23 10° NNE
Cosmos 1802 Rocket 3.9 21:05:25 10° S 21:11:26 63° E 21:17:31 10° NNE
Cosmos 1184 Rocket 3.5 21:12:26 10° N 21:15:03 41° NE 21:15:03 41° NE
Cosmos 1408 Rocket 4.3 21:16:28 10° NNW 21:20:51 53° W 21:25:11 10° S
H-2A R/B 3.9 21:21:37 17° NE 21:21:37 17° NE 21:24:23 10° NNE
Geosat 4.3 21:16:31 10° NNE 21:21:32 69° WNW 21:26:30 10° SW
Cosmos 2058 4.3 21:18:59 10° NNE 21:21:29 25° NE 21:21:29 25° NE
Cosmos 2082 Rocket 2.9 21:17:48 10° NNW 21:23:19 52° WSW 21:27:52 15° S
ERS-1 Rocket 3.1 21:23:18 45° ESE 21:24:18 53° ENE 21:29:13 10° N
CZ-3 Stage 3 3.9 20:52:18 10° W 21:25:24 47° SSW 21:29:16 30° SE
Cosmos 2061 Rocket 4.0 21:20:25 10° S 21:26:49 89° ESE 21:33:18 10° N
Meteor 1-11 4.3 21:22:39 10° N 21:28:07 53° ENE 21:29:11 46° ESE
SL-14 R/B 3.6 21:27:14 10° N 21:30:24 51° NNE 21:30:24 51° NNE
Timation 2 Rocket 4.4 21:25:42 10° NNW 21:31:51 59° WSW 21:35:50 22° S
ARGOS 4.0 21:32:39 32° ENE 21:32:39 32° ENE 21:37:10 10° N
Cosmos 2151 3.5 21:29:15 10° N 21:32:36 43° NE 21:32:36 43° NE
Meteor 1-16 Rocket 4.2 21:29:39 19° S 21:33:53 69° E 21:39:48 10° NNE
Cosmos 1842 Rocket 3.4 21:34:36 71° SE 21:34:54 76° E 21:39:19 10° N
Cosmos 1328 3.7 21:32:04 10° N 21:35:46 74° NNE 21:35:46 74° NNE
TIMED 4.4 21:32:42 10° SSW 21:37:05 85° WNW 21:41:29 10° NNE
Cosmos 1271 Rocket 4.0 21:33:49 10° SSW 21:37:38 42° WNW 21:41:30 10° N
Cosmos 1459 Rocket 4.2 21:31:27 10° SSW 21:37:40 70° W 21:43:51 10° N
Helios 1B rocket 3.7 21:33:49 10° N 21:37:43 41° WNW 21:41:34 10° SW
BREEZE-M DEB (TANK) 4.0 21:40:11 10° NW 21:41:29 28° NNW 21:41:29 28° NNW
Cosmos 2173 Rocket 4.4 21:38:38 10° SSW 21:44:44 63° W 21:50:58 10° N
Cosmos 1939 Rocket 3.5 21:44:14 44° SW 21:45:09 54° W 21:49:14 10° NNW
YAOGAN 6 3.5 21:47:36 45° N 21:47:36 45° N 21:50:15 10° NNW
Cosmos 1864 Rocket 4.4 21:48:07 44° SSE 21:50:14 73° E 21:56:32 10° NNE
Meteor 2-1 Rocket 4.5 21:51:15 52° ENE 21:51:15 52° ENE 21:56:02 10° NNE
Lacrosse 5 rocket 2.6 21:55:30 10° WNW 21:58:14 34° W 21:58:14 34° W
Cosmos 2251 Rocket 3.6 21:55:34 10° NNW 22:00:53 72° WSW 22:01:24 67° SSW
ISS -1.1 22:01:04 10° W 22:02:04 18° W 22:02:04 18° W
SPOT 1/Viking Rocket 4.4 22:05:56 39° NNE 22:05:56 39° NNE 22:09:39 10° N
CZ-3B DEB 3.9 22:06:45 10° WNW 22:12:16 22° NNW 22:14:42 15° NNE
Cosmos 2369 Rocket 3.9 22:18:38 21° NNE 22:18:38 21° NNE 22:20:28 10° NNE
USA 215 3.2 22:11:11 10° NE 22:17:44 81° NW 22:24:15 10° SW
MetOp-B 4.4 22:23:52 66° WNW 22:23:52 66° WNW 22:28:44 10° NNW
Cosmos 1725 Rocket 4.4 22:23:25 39° SW 22:25:38 61° W 22:31:48 10° N
Lacrosse 5 4.4 22:27:41 10° NW 22:30:56 17° NNW 22:33:46 11° NNE
SPOT 5 3.7 22:33:35 56° NW 22:33:35 56° NW 22:37:56 10° NNW
Terra 4.0 22:47:55 20° N 22:47:55 20° N 22:49:28 10° N
ATLAS 5 CENTAUR R/B 4.2 22:41:59 10° W 22:45:41 21° NW 22:49:40 10° NNE
USA 267 3.5 22:50:51 63° N 22:50:51 63° N 22:56:43 10° NW
H-2A R/B 3.5 23:02:14 35° NNW 23:02:14 35° NNW 23:05:17 10° NNW
